Location: Logan
(41.7360°N, 111.8340°W)
Time: 08:52:56
(UTC-07:00)

Daily predictions for brighter satellites

Satellite Brightness Start Highest point End
(mag) Time Altitude Azimuth Time Altitude Azimuth Time Altitude Azimuth
Cosmos 1833 Rocket 4.0 18:28:06 10° SW 18:33:26 43° WNW 18:38:48 10° NNE
Cosmos 1378 Rocket 3.7 18:30:30 10° N 18:34:50 78° W 18:39:07 10° S
NOSS 2-2 (D) 3.5 18:32:12 10° SSW 18:36:11 69° ESE 18:40:45 10° NE
DNEPR-1 R/B 4.4 18:33:37 10° NNW 18:37:26 29° NE 18:41:09 10° ESE
Cosmos 44 3.4 18:33:26 10° NNW 18:37:43 43° NE 18:41:50 10° SE
NOSS 5 (C) 4.3 18:35:31 10° SSW 18:39:09 74° ESE 18:42:14 10° NE
YAOGAN 1 4.3 18:35:22 10° SSW 18:39:25 39° W 18:43:29 10° NNW
BREEZE-M DEB (TANK) 4.0 18:37:50 10° NW 18:40:08 25° NNE 18:44:22 10° ENE
Cosmos 1908 Rocket 4.3 18:36:05 10° SSW 18:40:23 60° W 18:44:45 10° N
DELTA 2 R/B (1) 3.8 18:35:26 10° WSW 18:41:02 71° S 18:46:37 10° E
FENGYUN 3A 4.4 18:40:18 10° SE 18:45:00 32° ENE 18:49:44 10° N
Cosmos 1782 Rocket 3.6 18:40:58 10° S 18:45:23 89° ESE 18:49:52 10° N
Cosmos 1812 3.1 18:42:20 10° N 18:46:01 41° ENE 18:49:41 10° SSE
Cosmos 1992 Rocket 4.0 18:47:56 10° NNW 18:53:12 85° ENE 18:58:26 10° SSE
NOSS 2-2 (C) 3.6 18:49:20 10° SW 18:53:22 80° NW 18:58:01 10° NNE
ERBS 3.2 18:51:18 10° NW 18:54:42 53° SW 18:58:04 10° SSE
Cosmos 407 Rocket 3.9 18:50:39 10° S 18:55:31 42° ESE 19:00:29 10° NNE
COSMO-SKYMED 1 3.2 18:52:46 10° N 18:57:03 60° WNW 19:01:19 10° SSW
Okean 2 Rocket 3.1 18:53:51 10° S 18:58:19 90° SSW 19:02:47 10° N
BREEZE-M DEB (TANK) 3.7 18:58:50 10° WNW 19:01:22 49° N 19:08:43 14° ENE
Cosmos 1709 Rocket 4.3 18:56:14 10° SSE 19:02:01 41° E 19:07:45 10° NNE
FREGAT/IRIS 2.7 18:59:05 10° SSE 19:02:06 57° ENE 19:05:09 10° N
ATLAS CENTAUR R/B 4.1 18:59:42 10° W 19:02:38 17° NW 19:05:27 10° N
BREEZE-M DEB (TANK) 2.8 19:02:30 10° NW 19:04:40 31° NNE 19:06:55 17° E
Cosmos 2360 Rocket 3.0 19:05:59 10° N 19:10:58 31° NE 19:14:35 16° ESE
Cosmos 1980 Rocket 3.7 19:06:30 10° NW 19:11:46 40° WSW 19:17:01 10° S
Cosmos 2219 Rocket 4.1 19:13:38 10° NNE 19:14:30 10° NE 19:15:05 10° NE
Cosmos 2151 Rocket 3.5 19:12:05 10° S 19:16:31 66° E 19:21:01 10° NNE
METEOR-M 4.3 19:11:13 10° S 19:16:33 76° WSW 19:21:55 10° NNW
Cosmos 1190 Rocket 3.9 19:13:56 10° SSW 19:19:07 81° ESE 19:24:20 10° NNE
SJ-6B 2.9 19:15:13 10° SSE 19:19:16 85° WSW 19:23:16 10° NNW
Cosmos 1745 Rocket 4.4 19:13:26 10° SSW 19:19:43 68° W 19:26:00 10° N
NOAA 12 4.5 19:15:01 10° S 19:20:17 69° WSW 19:25:37 10° NNW
Meteor 1-18 Rocket 4.4 19:15:21 10° NNW 19:20:54 76° W 19:26:29 10° S
ALOS 2.2 19:16:30 10° SSE 19:21:07 65° ENE 19:25:45 10° N
GEOS 3 Rocket 3.6 19:18:21 10° NE 19:23:36 90° SE 19:28:54 10° SW
BREEZE-M DEB (TANK) 3.6 19:14:51 10° WNW 19:23:56 73° SW 19:26:10 19° SE
Cosmos 1140 Rocket 4.1 19:21:41 10° SSE 19:26:12 32° E 19:29:39 16° NE
Cosmos 1238 Rocket 3.1 19:23:42 10° N 19:25:50 29° NE 19:25:50 29° NE
TSX-5 3.9 19:24:43 10° S 19:27:27 33° ESE 19:27:27 33° ESE
Okean 1 Rocket 3.7 19:24:50 10° SSE 19:28:48 32° E 19:32:49 10° NNE
Spot 2 Rocket 3.4 19:25:35 10° SSE 19:30:33 62° ENE 19:35:34 10° N
Cosmos 1461 2.7 19:26:33 10° NNW 19:30:33 72° NE 19:33:03 22° SE
Cosmos 2333 Rocket 4.1 19:30:03 10° NNE 19:32:10 12° NE 19:32:10 12° NE
FengYun 1-2 T 4.1 19:28:38 10° SSE 19:34:07 83° ENE 19:39:38 10° NNW
Cosmos 2292 Rocket 4.1 19:32:44 10° S 19:37:23 90° ESE 19:43:47 10° N
Cosmos 1633 2.5 19:34:00 10° S 19:37:36 58° E 19:41:15 10° NNE
HJ-1C 3.5 19:35:12 10° S 19:38:34 74° W 19:41:57 10° NNW
Meteor 1-19 Rocket 4.3 19:33:03 10° N 19:38:37 56° ENE 19:44:14 10° SSE
Helios 1A 3.3 19:38:43 38° E 19:39:22 41° ENE 19:43:17 10° N
Okean 1-7 Rocket 4.3 19:35:32 10° N 19:39:20 33° ENE 19:39:20 33° ENE
SL-16 R/B 2.6 19:36:42 10° NNW 19:42:20 64° WSW 19:47:53 10° S
Cosmos 614 Rocket 4.5 19:38:29 10° SSE 19:42:48 34° ESE 19:42:48 34° ESE
Envisat 4.0 19:47:39 27° NE 19:47:39 27° NE 19:51:08 10° N
Cosmos 1954 Rocket 3.9 19:42:43 10° S 19:47:51 69° ESE 19:53:03 10° NNE
Okean 1 4.2 19:44:55 10° NNW 19:48:52 51° W 19:52:48 10° S
Cosmos 1340 2.6 19:46:43 10° N 19:50:31 87° W 19:53:13 18° S
Meteor 1-13 Rocket 4.1 19:45:09 10° N 19:50:43 81° E 19:56:20 10° SSE
Tiangong 2 1.6 19:52:15 10° W 19:54:54 55° WSW 19:54:54 55° WSW
CZ-2D R/B 3.1 19:57:59 59° SSE 19:58:41 86° ENE 20:02:31 10° N
Cosmos 2322 Rocket 3.4 19:56:18 10° NW 20:01:33 42° WSW 20:06:47 10° S
Cosmos 1025 Rocket 4.5 20:01:37 10° N 20:03:36 25° NNE 20:03:36 25° NNE
Resurs 01 Rocket 2.4 20:02:50 10° S 20:07:07 51° W 20:11:26 10° NNW
Meteor 1-23 Rocket 4.3 20:01:48 10° N 20:07:33 58° ENE 20:08:36 50° ESE
Helios 1B rocket 3.7 20:09:41 30° S 20:09:41 30° S 20:11:49 10° S
Cosmos 2322 3.6 20:05:18 10° NNW 20:11:04 78° ENE 20:12:40 49° SE
H-2A R/B 3.7 20:09:03 15° S 20:11:51 46° W 20:15:27 10° NNW
Cosmos 1818 3.9 20:07:15 10° SW 20:12:39 65° NW 20:16:11 22° NNE
Meteor 2-4 Rocket 3.5 20:14:54 10° N 20:20:32 90° W 20:22:25 43° S
COSMOS 2428 3.1 20:16:18 10° NNW 20:21:04 48° NE 20:21:04 48° NE
Cosmos 2237 4.1 20:17:00 10° NNW 20:22:35 65° NE 20:22:35 65° NE
Meteor 1-11 Rocket 4.1 20:19:11 10° SSW 20:24:52 64° WNW 20:30:44 10° N
Cosmos 2327 Rocket 4.3 20:20:15 10° S 20:26:25 77° E 20:32:43 10° N
DELTA 2 R/B (1) 3.7 20:21:48 10° W 20:27:19 60° SSW 20:27:32 59° S
Cosmos 1570 Rocket 4.2 20:30:58 10° NNW 20:35:19 62° NNW 20:35:19 62° NNW
Cosmos 2237 Rocket 4.0 20:31:59 10° N 20:33:58 18° NNE 20:33:58 18° NNE
Cosmos 2184 Rocket 4.1 20:37:35 10° SSW 20:43:56 77° W 20:50:15 10° N
Cosmos 2074 Rocket 4.1 20:39:12 10° SSW 20:45:25 72° W 20:51:42 10° N
Cosmos 2360 Rocket 3.3 20:49:48 10° NW 20:55:02 40° WSW 20:56:26 34° SW
Cosmos 2219 Rocket 3.6 20:54:12 10° NNW 20:56:49 28° N 20:56:49 28° N
Cosmos 2285 Rocket 4.5 21:01:57 10° NNW 21:06:54 55° NNW 21:06:54 55° NNW
Cosmos 2333 Rocket 4.0 21:11:57 10° NNW 21:14:12 24° NNW 21:14:12 24° NNW
